Location: Arpaise
(41.0333°N, 14.7333°E)
Time: 21:41:09
(UTC+00:00)

Cosmos 846 Rocket - Pass Details

Date: 17 January 2021
Orbit: 948 x 991 km, 82.9° (Epoch: 06 March)

Event Time Altitude Azimuth Distance (km) Brightness Sun altitude
Rises 05:35:53 0° 357° (N) 3,639 8.3 -9.0°
Reaches altitude 10° 05:38:28 10° 2° (N) 2,685 7.6 -8.5°
Maximum altitude 05:44:27 54° 79° (E) 1,144 6.3 -7.5°
Drops below altitude 10° 05:50:23 10° 156° (SSE) 2,663 8.5 -6.4°
Sets 05:52:56 0° 161° (SSE) 3,605 9.2 -6.0°
